QPF
0.00 0.00 0.00 0.00 0.00 0.00 0.00 0.00 0.00 0.00 0.00 0.00 0.00 0.00 0.00 0.00 0.00 0.00 0.00 0.01 0.01 0.01 0.02 0.02 0.02 0.02 0.02 0.02 0.02 0.02 0.02 0.02 0.01 0.01 0.01 0.00 0.00 0.00 0.01 0.01 0.02 0.02 0.02
0.00 0.00 0.00 0.00 0.00 0.00 0.00 0.00 0.00 0.00 0.00 0.00 0.00 0.00 0.00 0.00 0.00 0.00 0.00 0.00 0.01 0.01 0.02 0.02 0.03 0.03 0.04 0.04 0.04 0.03 0.03 0.03 0.03 0.02 0.02 0.01 0.01 0.01 0.01 0.01 0.01 0.01 0.01
0.00 0.00 0.01 0.01 0.01 0.01 0.01 0.01 0.02 0.01 0.01 0.01 0.01 0.00 0.00 0.00 0.00 0.00 0.00 0.00 0.00 0.01 0.01 0.02 0.02 0.03 0.04 0.05 0.06 0.05 0.05 0.04 0.04 0.04 0.04 0.03 0.03 0.02 0.02 0.01 0.01 0.01 0.01
0.01 0.02 0.04 0.06 0.06 0.06 0.06 0.05 0.04 0.02 0.02 0.01 0.01 0.00 0.00 0.00 0.00 0.00 0.00 0.00 0.00 0.00 0.00 0.01 0.01 0.02 0.03 0.05 0.06 0.07 0.08 0.08 0.08 0.07 0.06 0.06 0.05 0.04 0.03 0.03 0.02 0.02 0.02
0.08 0.11 0.16 0.16 0.14 0.11 0.09 0.08 0.06 0.04 0.03 0.02 0.01 0.00 0.00 0.00 0.00 0.00 0.00 0.00 0.00 0.00 0.00 0.00 0.01 0.02 0.03 0.03 0.04 0.05 0.06 0.07 0.08 0.08 0.08 0.07 0.07 0.06 0.05 0.04 0.03 0.02 0.02
0.23 0.26 0.26 0.23 0.18 0.14 0.11 0.09 0.06 0.05 0.03 0.02 0.01 0.01 0.00 0.00 0.00 0.00 0.00 0.00 0.00 0.00 0.00 0.00 0.00 0.00 0.01 0.01 0.01 0.01 0.02 0.02 0.03 0.03 0.04 0.05 0.06 0.06 0.06 0.06 0.05 0.04 0.03
0.40 0.38 0.32 0.25 0.18 0.14 0.12 0.08 0.06 0.04 0.02 0.01 0.01 0.01 0.01 0.00 0.00 0.00 0.00 0.00 0.00 0.00 0.00 0.00 0.00 0.00 0.00 0.00 0.00 0.00 0.00 0.00 0.01 0.01 0.02 0.03 0.03 0.04 0.04 0.04 0.04 0.04 0.03
0.53 0.45 0.35 0.26 0.18 0.13 0.09 0.07 0.04 0.03 0.02 0.01 0.00 0.00 0.00 0.00 0.00 0.00 0.00 0.00 0.00 0.00 0.00 0.00 0.00 0.00 0.00 0.00 0.00 0.00 0.00 0.00 0.00 0.00 0.00 0.01 0.02 0.02 0.02 0.02 0.02 0.02 0.02
0.60 0.47 0.35 0.25 0.17 0.12 0.08 0.05 0.03 0.02 0.01 0.01 0.00 0.00 0.00 0.00 0.00 0.00 0.00 0.00 0.00 0.00 0.00 0.00 0.00 0.00 0.00 0.00 0.00 0.00 0.00 0.00 0.00 0.00 0.00 0.00 0.00 0.01 0.01 0.02 0.02 0.02 0.02
0.55 0.43 0.32 0.22 0.14 0.08 0.04 0.02 0.01 0.01 0.00 0.00 0.00 0.00 0.00 0.00 0.00 0.00 0.00 0.00 0.00 0.00 0.00 0.00 0.00 0.00 0.00 0.00 0.00 0.00 0.00 0.00 0.00 0.00 0.00 0.00 0.00 0.00 0.01 0.01 0.02 0.02 0.02
0.38 0.30 0.21 0.13 0.08 0.05 0.02 0.01 0.01 0.00 0.00 0.00 0.00 0.00 0.00 0.00 0.00 0.00 0.00 0.00 0.00 0.00 0.00 0.00 0.00 0.00 0.00 0.00 0.00 0.00 0.00 0.00 0.00 0.00 0.00 0.00 0.00 0.00 0.00 0.01 0.01 0.02 0.02
0.22 0.17 0.13 0.09 0.06 0.03 0.02 0.01 0.01 0.00 0.00 0.00 0.00 0.00 0.00 0.00 0.00 0.00 0.00 0.00 0.00 0.00 0.00 0.00 0.00 0.00 0.00 0.00 0.00 0.00 0.00 0.00 0.00 0.00 0.00 0.00 0.00 0.00 0.00 0.01 0.02 0.03 0.04
0.15 0.12 0.08 0.04 0.03 0.01 0.01 0.01 0.00 0.00 0.00 0.00 0.00 0.00 0.00 0.00 0.00 0.00 0.00 0.00 0.00 0.00 0.00 0.00 0.00 0.00 0.00 0.00 0.00 0.00 0.00 0.00 0.00 0.00 0.00 0.00 0.00 0.00 0.00 0.01 0.01 0.03 0.04
0.07 0.05 0.03 0.02 0.01 0.01 0.00 0.00 0.00 0.00 0.00 0.00 0.00 0.00 0.00 0.00 0.00 0.00 0.00 0.00 0.00 0.00 0.00 0.00 0.00 0.00 0.00 0.00 0.00 0.00 0.00 0.00 0.00 0.00 0.00 0.00 0.00 0.00 0.00 0.01 0.01 0.02 0.03
0.03 0.02 0.01 0.01 0.00 0.00 0.00 0.00 0.00 0.00 0.00 0.00 0.00 0.00 0.00 0.00 0.00 0.00 0.00 0.00 0.00 0.01 0.00 0.00 0.00 0.00 0.00 0.00 0.00 0.00 0.00 0.00 0.00 0.00 0.00 0.00 0.00 0.00 0.00 0.00 0.01 0.01 0.01
0.01 0.01 0.01 0.00 0.00 0.00 0.00 0.00 0.00 0.00 0.00 0.00 0.00 0.00 0.00 0.00 0.00 0.00 0.00 0.00 0.00 0.00 0.00 0.00 0.00 0.00 0.00 0.00 0.00 0.00 0.00 0.00 0.00 0.00 0.00 0.00 0.00 0.01 0.01 0.01 0.01 0.01 0.01
0.01 0.00 0.00 0.00 0.00 0.00 0.00 0.00 0.00 0.00 0.00 0.00 0.00 0.00 0.00 0.00 0.00 0.00 0.00 0.00 0.00 0.00 0.00 0.00 0.00 0.00 0.00 0.00 0.00 0.00 0.00 0.00 0.00 0.00 0.00 0.01 0.01 0.01 0.02 0.02 0.02 0.02 0.02
0.00 0.00 0.00 0.00 0.00 0.00 0.00 0.00 0.00 0.00 0.00 0.00 0.00 0.00 0.00 0.00 0.00 0.00 0.00 0.00 0.00 0.00 0.00 0.00 0.00 0.00 0.00 0.00 0.00 0.00 0.00 0.00 0.00 0.00 0.00 0.01 0.01 0.02 0.02 0.02 0.02 0.02 0.02
0.00 0.00 0.00 0.00 0.00 0.00 0.00 0.00 0.00 0.00 0.00 0.00 0.00 0.00 0.00 0.00 0.00 0.00 0.00 0.00 0.00 0.00 0.00 0.00 0.00 0.00 0.00 0.00 0.00 0.00 0.00 0.00 0.00 0.00 0.00 0.00 0.01 0.02 0.02 0.02 0.02 0.02 0.02
0.00 0.00 0.00 0.00 0.00 0.00 0.00 0.00 0.00 0.00 0.00 0.00 0.00 0.00 0.00 0.00 0.00 0.00 0.00 0.00 0.00 0.00 0.01 0.01 0.01 0.01 0.01 0.00 0.00 0.00 0.00 0.00 0.00 0.00 0.00 0.00 0.01 0.01 0.01 0.01 0.01 0.02 0.02
0.00 0.00 0.00 0.00 0.00 0.00 0.00 0.00 0.00 0.00 0.00 0.00 0.00 0.00 0.00 0.00 0.00 0.00 0.01 0.01 0.01 0.01 0.02 0.02 0.02 0.02 0.01 0.01 0.01 0.01 0.01 0.01 0.00 0.00 0.00 0.00 0.00 0.00 0.00 0.01 0.01 0.01 0.01
0.00 0.00 0.00 0.00 0.00 0.00 0.00 0.00 0.00 0.00 0.00 0.00 0.00 0.00 0.00 0.00 0.00 0.00 0.00 0.01 0.03 0.03 0.03 0.03 0.03 0.03 0.02 0.01 0.01 0.01 0.02 0.02 0.02 0.01 0.01 0.01 0.00 0.00 0.00 0.00 0.00 0.00 0.00
0.00 0.00 0.00 0.00 0.00 0.00 0.00 0.00 0.00 0.00 0.00 0.00 0.00 0.00 0.00 0.00 0.00 0.00 0.00 0.00 0.01 0.01 0.02 0.03 0.03 0.03 0.02 0.02 0.03 0.04 0.04 0.04 0.03 0.02 0.03 0.03 0.01 0.01 0.01 0.01 0.01 0.01 0.00
0.00 0.00 0.00 0.00 0.00 0.00 0.00 0.00 0.00 0.00 0.00 0.00 0.00 0.00 0.00 0.00 0.00 0.01 0.00 0.00 0.00 0.00 0.01 0.01 0.02 0.02 0.03 0.03 0.04 0.06 0.06 0.05 0.03 0.02 0.03 0.05 0.02 0.01 0.01 0.01 0.01 0.01 0.01
0.00 0.00 0.00 0.00 0.00 0.00 0.00 0.00 0.00 0.00 0.00 0.00 0.00 0.00 0.00 0.00 0.01 0.01 0.01 0.01 0.01 0.00 0.01 0.02 0.02 0.04 0.05 0.05 0.07 0.07 0.08 0.07 0.04 0.02 0.03 0.05 0.05 0.03 0.02 0.02 0.02 0.03 0.02
0.00 0.00 0.00 0.00 0.00 0.00 0.00 0.00 0.00 0.00 0.00 0.00 0.00 0.00 0.00 0.01 0.01 0.01 0.01 0.01 0.02 0.01 0.01 0.01 0.02 0.03 0.04 0.05 0.07 0.07 0.07 0.07 0.05 0.04 0.04 0.06 0.05 0.05 0.04 0.02 0.02 0.03 0.03
MSLP
1016.42 1016.66 1016.84 1016.99 1017.14 1017.32 1017.54 1017.80 1018.06 1018.30 1018.47 1018.58 1018.60 1018.58 1018.52 1018.47 1018.45 1018.49 1018.56 1018.66 1018.75 1018.82 1018.85 1018.83 1018.78 1018.72 1018.68 1018.68 1018.72 1018.81 1018.93 1019.07 1019.21 1019.33 1019.44 1019.53 1019.63 1019.73 1019.86 1019.99 1020.14 1020.29 1020.44
1016.44 1016.71 1016.94 1017.14 1017.34 1017.57 1017.83 1018.12 1018.40 1018.65 1018.84 1018.95 1018.99 1018.97 1018.93 1018.88 1018.86 1018.88 1018.93 1019.01 1019.07 1019.11 1019.11 1019.06 1018.97 1018.86 1018.76 1018.68 1018.63 1018.63 1018.67 1018.74 1018.83 1018.93 1019.04 1019.16 1019.29 1019.43 1019.58 1019.75 1019.92 1020.09 1020.25
1016.48 1016.78 1017.05 1017.31 1017.57 1017.86 1018.17 1018.48 1018.79 1019.05 1019.25 1019.38 1019.43 1019.43 1019.39 1019.35 1019.33 1019.33 1019.36 1019.40 1019.44 1019.45 1019.42 1019.33 1019.21 1019.05 1018.88 1018.73 1018.60 1018.51 1018.47 1018.46 1018.50 1018.56 1018.66 1018.79 1018.94 1019.12 1019.30 1019.50 1019.70 1019.89 1020.07
1016.54 1016.86 1017.17 1017.48 1017.80 1018.14 1018.49 1018.83 1019.15 1019.43 1019.64 1019.78 1019.85 1019.87 1019.85 1019.82 1019.80 1019.79 1019.80 1019.82 1019.82 1019.80 1019.74 1019.63 1019.47 1019.28 1019.07 1018.86 1018.66 1018.49 1018.37 1018.30 1018.28 1018.30 1018.38 1018.50 1018.66 1018.85 1019.06 1019.27 1019.48 1019.69 1019.88
1016.62 1016.94 1017.27 1017.62 1017.99 1018.37 1018.74 1019.11 1019.44 1019.72 1019.94 1020.10 1020.20 1020.24 1020.25 1020.24 1020.23 1020.22 1020.22 1020.21 1020.19 1020.14 1020.06 1019.93 1019.76 1019.55 1019.31 1019.07 1018.83 1018.61 1018.43 1018.30 1018.22 1018.21 1018.25 1018.35 1018.49 1018.66 1018.86 1019.06 1019.27 1019.46 1019.66
1016.70 1017.02 1017.36 1017.73 1018.12 1018.52 1018.91 1019.28 1019.61 1019.90 1020.12 1020.30 1020.42 1020.50 1020.55 1020.57 1020.58 1020.58 1020.58 1020.56 1020.52 1020.45 1020.36 1020.22 1020.05 1019.84 1019.61 1019.35 1019.10 1018.86 1018.65 1018.47 1018.35 1018.29 1018.28 1018.33 1018.42 1018.55 1018.71 1018.87 1019.04 1019.21 1019.37
1016.79 1017.09 1017.43 1017.81 1018.20 1018.60 1018.99 1019.35 1019.67 1019.94 1020.18 1020.37 1020.53 1020.65 1020.74 1020.81 1020.86 1020.88 1020.87 1020.85 1020.80 1020.72 1020.62 1020.48 1020.32 1020.13 1019.91 1019.68 1019.44 1019.19 1018.97 1018.77 1018.61 1018.49 1018.43 1018.41 1018.44 1018.49 1018.57 1018.66 1018.77 1018.88 1019.00
1016.89 1017.17 1017.50 1017.87 1018.26 1018.65 1019.02 1019.35 1019.65 1019.92 1020.15 1020.36 1020.55 1020.72 1020.87 1020.98 1021.06 1021.11 1021.11 1021.08 1021.02 1020.93 1020.82 1020.68 1020.53 1020.37 1020.18 1019.97 1019.75 1019.53 1019.30 1019.09 1018.90 1018.73 1018.61 1018.51 1018.45 1018.42 1018.40 1018.41 1018.43 1018.47 1018.53
1016.99 1017.27 1017.60 1017.96 1018.34 1018.71 1019.06 1019.37 1019.64 1019.89 1020.12 1020.34 1020.56 1020.77 1020.95 1021.11 1021.23 1021.29 1021.30 1021.25 1021.17 1021.06 1020.93 1020.79 1020.64 1020.49 1020.33 1020.15 1019.96 1019.76 1019.54 1019.32 1019.10 1018.90 1018.71 1018.54 1018.39 1018.27 1018.16 1018.07 1018.00 1017.96 1017.95
1017.13 1017.42 1017.76 1018.13 1018.51 1018.86 1019.18 1019.45 1019.69 1019.92 1020.14 1020.36 1020.60 1020.83 1021.05 1021.23 1021.37 1021.43 1021.42 1021.36 1021.24 1021.09 1020.93 1020.76 1020.61 1020.46 1020.30 1020.15 1019.98 1019.79 1019.58 1019.36 1019.12 1018.88 1018.64 1018.42 1018.20 1017.99 1017.80 1017.63 1017.49 1017.38 1017.32
1017.32 1017.65 1018.02 1018.40 1018.78 1019.12 1019.41 1019.65 1019.86 1020.06 1020.26 1020.47 1020.71 1020.94 1021.17 1021.36 1021.48 1021.53 1021.50 1021.39 1021.22 1021.02 1020.81 1020.60 1020.42 1020.25 1020.09 1019.93 1019.77 1019.59 1019.38 1019.15 1018.90 1018.64 1018.38 1018.11 1017.84 1017.58 1017.34 1017.12 1016.93 1016.77 1016.66
1017.58 1017.96 1018.37 1018.78 1019.16 1019.49 1019.76 1019.98 1020.15 1020.31 1020.48 1020.67 1020.88 1021.11 1021.31 1021.48 1021.58 1021.59 1021.51 1021.34 1021.12 1020.86 1020.58 1020.32 1020.09 1019.88 1019.70 1019.52 1019.35 1019.16 1018.95 1018.72 1018.46 1018.19 1017.91 1017.63 1017.35 1017.07 1016.81 1016.56 1016.35 1016.16 1016.03
1017.92 1018.36 1018.81 1019.25 1019.63 1019.96 1020.20 1020.38 1020.52 1020.64 1020.77 1020.93 1021.10 1021.29 1021.46 1021.59 1021.64 1021.60 1021.46 1021.24 1020.94 1020.61 1020.27 1019.95 1019.66 1019.41 1019.18 1018.98 1018.77 1018.57 1018.34 1018.10 1017.84 1017.57 1017.30 1017.02 1016.75 1016.49 1016.24 1016.00 1015.78 1015.59 1015.44
1018.35 1018.83 1019.31 1019.76 1020.15 1020.45 1020.67 1020.82 1020.92 1021.00 1021.08 1021.19 1021.32 1021.46 1021.58 1021.65 1021.65 1021.56 1021.36 1021.07 1020.72 1020.33 1019.93 1019.54 1019.19 1018.89 1018.61 1018.36 1018.13 1017.89 1017.65 1017.39 1017.13 1016.87 1016.61 1016.36 1016.11 1015.88 1015.65 1015.44 1015.23 1015.05 1014.88
1018.85 1019.36 1019.84 1020.29 1020.65 1020.93 1021.12 1021.22 1021.28 1021.31 1021.35 1021.41 1021.49 1021.58 1021.65 1021.66 1021.61 1021.46 1021.21 1020.87 1020.46 1020.02 1019.57 1019.14 1018.74 1018.38 1018.06 1017.76 1017.48 1017.21 1016.94 1016.67 1016.40 1016.14 1015.90 1015.67 1015.46 1015.25 1015.06 1014.87 1014.68 1014.49 1014.32
1019.42 1019.91 1020.37 1020.78 1021.11 1021.34 1021.48 1021.54 1021.55 1021.55 1021.54 1021.56 1021.59 1021.63 1021.65 1021.61 1021.51 1021.31 1021.02 1020.64 1020.20 1019.72 1019.24 1018.77 1018.33 1017.92 1017.55 1017.21 1016.89 1016.57 1016.27 1015.97 1015.69 1015.43 1015.19 1014.98 1014.78 1014.60 1014.42 1014.25 1014.06 1013.88 1013.70
1020.02 1020.47 1020.88 1021.22 1021.49 1021.66 1021.74 1021.76 1021.73 1021.68 1021.64 1021.62 1021.61 1021.60 1021.58 1021.50 1021.36 1021.12 1020.80 1020.40 1019.93 1019.43 1018.92 1018.42 1017.95 1017.51 1017.10 1016.71 1016.34 1015.98 1015.64 1015.31 1015.00 1014.72 1014.47 1014.25 1014.05 1013.87 1013.70 1013.52 1013.33 1013.14 1012.94
1020.65 1021.02 1021.35 1021.61 1021.80 1021.90 1021.92 1021.89 1021.82 1021.73 1021.66 1021.60 1021.56 1021.52 1021.46 1021.34 1021.16 1020.90 1020.55 1020.12 1019.64 1019.12 1018.59 1018.07 1017.57 1017.10 1016.65 1016.22 1015.80 1015.40 1015.01 1014.64 1014.30 1013.98 1013.70 1013.46 1013.24 1013.04 1012.85 1012.66 1012.46 1012.25 1012.04
1021.27 1021.55 1021.79 1021.96 1022.06 1022.09 1022.05 1021.96 1021.85 1021.74 1021.63 1021.55 1021.47 1021.39 1021.29 1021.14 1020.92 1020.62 1020.25 1019.80 1019.30 1018.76 1018.22 1017.67 1017.15 1016.64 1016.16 1015.69 1015.23 1014.78 1014.35 1013.94 1013.55 1013.19 1012.87 1012.59 1012.34 1012.10 1011.88 1011.66 1011.44 1011.22 1011.01
1021.85 1022.05 1022.19 1022.28 1022.30 1022.25 1022.16 1022.02 1021.88 1021.73 1021.59 1021.47 1021.36 1021.24 1021.09 1020.90 1020.63 1020.30 1019.88 1019.41 1018.88 1018.32 1017.75 1017.19 1016.64 1016.10 1015.58 1015.08 1014.58 1014.10 1013.63 1013.18 1012.75 1012.35 1011.99 1011.66 1011.36 1011.09 1010.83 1010.59 1010.35 1010.12 1009.93
1022.38 1022.51 1022.57 1022.58 1022.53 1022.43 1022.28 1022.10 1021.91 1021.73 1021.55 1021.39 1021.23 1021.06 1020.86 1020.60 1020.29 1019.91 1019.45 1018.94 1018.38 1017.80 1017.20 1016.61 1016.04 1015.48 1014.93 1014.40 1013.88 1013.37 1012.87 1012.38 1011.93 1011.50 1011.10 1010.73 1010.39 1010.08 1009.79 1009.53 1009.28 1009.06 1008.89
1022.85 1022.91 1022.93 1022.88 1022.77 1022.62 1022.42 1022.20 1021.97 1021.74 1021.52 1021.30 1021.09 1020.85 1020.58 1020.27 1019.90 1019.46 1018.96 1018.40 1017.81 1017.20 1016.58 1015.97 1015.37 1014.80 1014.24 1013.69 1013.16 1012.63 1012.12 1011.62 1011.15 1010.70 1010.27 1009.88 1009.51 1009.18 1008.86 1008.59 1008.34 1008.14 1008.00
1023.25 1023.27 1023.24 1023.15 1023.01 1022.81 1022.58 1022.32 1022.05 1021.77 1021.49 1021.21 1020.93 1020.62 1020.28 1019.90 1019.46 1018.97 1018.42 1017.83 1017.21 1016.57 1015.94 1015.32 1014.71 1014.13 1013.57 1013.02 1012.49 1011.97 1011.47 1010.97 1010.50 1010.04 1009.61 1009.20 1008.81 1008.46 1008.14 1007.85 1007.61 1007.43 1007.32
1023.57 1023.58 1023.52 1023.40 1023.22 1022.99 1022.72 1022.43 1022.11 1021.78 1021.44 1021.10 1020.74 1020.37 1019.96 1019.51 1019.01 1018.47 1017.88 1017.26 1016.62 1015.98 1015.34 1014.72 1014.12 1013.55 1013.00 1012.47 1011.96 1011.46 1010.98 1010.50 1010.04 1009.59 1009.16 1008.74 1008.35 1007.98 1007.65 1007.36 1007.12 1006.95 1006.87
1023.85 1023.83 1023.74 1023.60 1023.40 1023.14 1022.84 1022.50 1022.14 1021.76 1021.37 1020.96 1020.54 1020.10 1019.62 1019.12 1018.58 1018.00 1017.39 1016.76 1016.11 1015.47 1014.85 1014.24 1013.67 1013.12 1012.59 1012.09 1011.61 1011.15 1010.69 1010.25 1009.80 1009.37 1008.94 1008.52 1008.12 1007.74 1007.38 1007.08 1006.83 1006.66 1006.58
1024.07 1024.03 1023.93 1023.76 1023.53 1023.25 1022.91 1022.54 1022.14 1021.72 1021.27 1020.81 1020.34 1019.84 1019.32 1018.77 1018.20 1017.60 1016.98 1016.35 1015.72 1015.10 1014.50 1013.92 1013.37 1012.85 1012.36 1011.90 1011.45 1011.02 1010.60 1010.18 1009.75 1009.33 1008.90 1008.48 1008.06 1007.65 1007.27 1006.93 1006.66 1006.46 1006.35
Thickness
5722 5719 5715 5711 5708 5705 5703 5700 5697 5696 5694 5693 5692 5691 5690 5689 5688 5687 5686 5685 5685 5683 5682 5681 5680 5679 5677 5675 5674 5672 5670 5668 5667 5665 5664 5663 5661 5660 5659 5658 5658 5657 5657
5719 5715 5711 5708 5704 5701 5698 5695 5693 5690 5688 5686 5684 5683 5681 5680 5679 5678 5677 5676 5676 5675 5674 5673 5672 5671 5669 5668 5666 5664 5663 5661 5659 5657 5656 5654 5653 5652 5651 5650 5649 5649 5649
5714 5710 5706 5702 5699 5696 5693 5690 5686 5684 5681 5679 5676 5674 5672 5671 5670 5669 5668 5667 5666 5665 5664 5663 5662 5661 5660 5659 5657 5655 5653 5652 5650 5648 5646 5645 5643 5642 5641 5640 5640 5639 5639
5707 5702 5698 5694 5691 5689 5686 5682 5678 5675 5672 5670 5667 5664 5662 5661 5660 5658 5657 5656 5655 5653 5651 5650 5650 5650 5649 5649 5647 5645 5643 5641 5639 5637 5636 5634 5633 5632 5630 5630 5629 5629 5629
5698 5693 5687 5684 5682 5679 5676 5674 5669 5666 5663 5661 5659 5655 5652 5650 5648 5647 5645 5644 5642 5640 5638 5637 5636 5636 5636 5635 5634 5633 5631 5630 5628 5626 5625 5623 5622 5621 5619 5619 5618 5618 5618
5689 5683 5677 5674 5673 5670 5666 5663 5660 5656 5653 5651 5650 5646 5641 5639 5636 5634 5632 5630 5629 5626 5624 5623 5622 5621 5620 5619 5618 5617 5617 5615 5614 5613 5612 5611 5610 5608 5608 5607 5606 5606 5606
5680 5676 5670 5667 5665 5662 5657 5653 5651 5647 5644 5641 5640 5636 5630 5627 5624 5621 5619 5617 5614 5612 5610 5608 5606 5604 5603 5602 5601 5601 5600 5599 5598 5597 5597 5596 5596 5595 5594 5594 5594 5594 5594
5672 5668 5666 5662 5657 5653 5648 5645 5643 5638 5633 5630 5629 5626 5621 5617 5613 5609 5606 5603 5600 5597 5595 5593 5591 5589 5587 5586 5584 5583 5582 5582 5581 5581 5580 5580 5581 5580 5580 5580 5580 5581 5581
5664 5661 5657 5653 5649 5644 5640 5636 5634 5631 5624 5618 5616 5615 5611 5608 5601 5598 5593 5590 5587 5584 5581 5578 5575 5573 5571 5569 5567 5566 5565 5564 5564 5564 5564 5564 5564 5564 5565 5566 5567 5567 5568
5654 5651 5647 5644 5640 5634 5630 5627 5624 5621 5616 5609 5603 5599 5595 5591 5587 5585 5582 5577 5573 5570 5566 5563 5560 5557 5554 5552 5550 5549 5548 5547 5546 5546 5546 5547 5547 5548 5549 5550 5552 5553 5555
5643 5641 5637 5633 5629 5624 5620 5616 5611 5607 5603 5597 5591 5586 5580 5574 5570 5569 5568 5565 5561 5557 5552 5548 5544 5541 5538 5535 5533 5531 5530 5529 5528 5528 5528 5528 5528 5529 5531 5533 5535 5537 5540
5633 5630 5627 5622 5618 5614 5609 5603 5599 5594 5588 5583 5577 5572 5567 5563 5557 5552 5550 5549 5548 5546 5540 5534 5528 5524 5520 5517 5515 5513 5512 5510 5509 5508 5508 5508 5509 5510 5512 5514 5517 5520 5523
5623 5619 5615 5611 5607 5602 5596 5591 5586 5580 5575 5570 5564 5558 5553 5548 5543 5537 5534 5534 5532 5531 5527 5521 5512 5506 5502 5499 5497 5494 5492 5490 5489 5488 5487 5487 5488 5489 5491 5493 5496 5499 5503
5613 5608 5603 5598 5594 5588 5583 5577 5572 5566 5561 5555 5550 5544 5538 5533 5527 5522 5518 5516 5518 5520 5513 5508 5499 5490 5485 5481 5478 5475 5473 5470 5468 5467 5466 5466 5467 5468 5470 5472 5475 5478 5482
5601 5595 5590 5584 5579 5574 5568 5563 5557 5550 5545 5539 5534 5528 5523 5517 5511 5506 5501 5496 5494 5502 5505 5495 5484 5477 5469 5465 5461 5458 5455 5452 5449 5447 5446 5446 5446 5447 5449 5451 5454 5457 5461
5588 5581 5575 5569 5563 5557 5552 5546 5540 5534 5528 5522 5517 5511 5506 5501 5495 5490 5485 5479 5474 5474 5479 5477 5468 5461 5455 5451 5447 5443 5440 5436 5433 5431 5430 5429 5430 5431 5432 5435 5437 5440 5444
5572 5566 5559 5552 5546 5539 5534 5528 5522 5516 5511 5506 5500 5495 5491 5486 5481 5475 5470 5464 5459 5455 5459 5462 5452 5447 5440 5436 5434 5430 5427 5424 5421 5419 5418 5418 5418 5420 5421 5423 5426 5428 5431
5554 5547 5541 5535 5528 5522 5516 5511 5506 5500 5495 5490 5485 5480 5476 5472 5466 5461 5456 5451 5446 5442 5440 5445 5443 5435 5430 5426 5424 5421 5418 5416 5413 5412 5411 5411 5412 5413 5415 5416 5418 5420 5422
5535 5529 5523 5517 5511 5505 5500 5494 5489 5484 5479 5474 5470 5466 5462 5457 5453 5449 5444 5440 5436 5433 5429 5429 5431 5427 5423 5419 5417 5415 5413 5410 5408 5408 5408 5409 5409 5410 5411 5412 5414 5415 5417
5518 5511 5505 5499 5494 5488 5483 5478 5473 5469 5465 5461 5457 5453 5449 5445 5442 5439 5435 5431 5428 5424 5422 5420 5421 5420 5418 5416 5412 5411 5410 5408 5407 5407 5407 5408 5408 5409 5409 5410 5411 5412 5414
5501 5494 5488 5482 5477 5472 5467 5463 5459 5456 5452 5448 5444 5441 5437 5435 5434 5430 5427 5423 5420 5419 5417 5416 5416 5416 5415 5413 5410 5408 5408 5407 5407 5406 5408 5408 5407 5408 5408 5409 5409 5410 5412
5482 5476 5471 5466 5461 5457 5453 5450 5446 5442 5439 5436 5433 5430 5427 5426 5423 5420 5417 5415 5413 5412 5412 5412 5413 5412 5412 5410 5409 5406 5405 5405 5406 5407 5405 5407 5406 5408 5409 5409 5410 5410 5410
5464 5459 5455 5450 5446 5443 5440 5437 5434 5430 5427 5425 5422 5420 5418 5417 5414 5412 5410 5409 5409 5408 5408 5408 5409 5409 5409 5408 5406 5405 5403 5402 5403 5404 5403 5406 5407 5408 5410 5411 5412 5411 5411
5449 5445 5440 5437 5433 5431 5428 5425 5422 5419 5417 5416 5414 5412 5410 5410 5409 5407 5406 5407 5407 5408 5408 5408 5407 5407 5406 5405 5403 5401 5401 5401 5401 5401 5401 5404 5407 5409 5411 5412 5412 5412 5412
5435 5431 5427 5424 5421 5418 5416 5414 5411 5409 5407 5407 5406 5406 5405 5404 5404 5403 5404 5406 5407 5409 5409 5408 5407 5406 5405 5403 5401 5399 5399 5398 5399 5400 5400 5400 5404 5406 5409 5412 5413 5413 5413
5421 5418 5415 5412 5409 5406 5405 5403 5401 5399 5399 5399 5400 5401 5401 5400 5401 5402 5403 5405 5407 5409 5409 5409 5409 5407 5405 5403 5400 5397 5396 5395 5395 5397 5397 5396 5399 5401 5407 5410 5412 5412 5412